Home > Weather > Chiclayo > Past weeks

Flag for Peru Weather for the Past 2 Weeks in Chiclayo, Lambayeque, Peru

Now
70 °F

Clear.


Feels Like: 70 °F
Forecast: 67 / 82 °F
Wind: 17 mph from South

Location: Chiclayo Airport

Current Time: May 3, 2016 at 9:38:52 PM

Latest Report: May 3, 2016 at 9:00 PM


Visibility: 10 mi

Pressure: 29.89 "Hg

Humidity: 83%

Dew Point: 64 °F

Location of ChiclayoLocation

Historic Weather in Chiclayo — Graph

°F

Chiclayo Temperature Yesterday

Maximum temperature yesterday: 86 °F (at 12:00 PM)
Minimum temperature yesterday: 68 °F (at 6:00 AM)
Average temperature yesterday: 75 °F

High & Low Weather Summary for the Past Weeks

 TemperatureHumidityPressure
High86 °F (May 2, 12:00 PM)100% (Apr 23, 3:00 AM)29.98 "Hg (Apr 23, 3:00 AM)
Low64 °F (Apr 26, 4:00 AM)49% (May 2, 2:00 PM)29.74 "Hg (Apr 27, 3:00 PM)
Average73 °F80%29.87 "Hg
* Reported Apr 18 8:00 PM — May 3 8:00 PM, Chiclayo, Weather by CustomWeather, © 2016

Note: Actual official high and low records may vary slightly from our data, if they occured in-between our weather recording intervals... More about our weather records

Advertising

Chiclayo Weather History for the Previous 24 Hours

Scroll right to see more
 ConditionsComfort  
Time TempWeatherWind HumidityBarometerVisibility
8:00 PM
Tue, May 3
70 °FClear.18 mph83%29.86 "Hg10 mi
7:00 PM72 °FClear.18 mph78%29.86 "Hg10 mi
6:00 PM73 °FSunny.21 mph74%29.83 "Hg10 mi
5:00 PM75 °FSunny.23 mph69%29.83 "Hg10 mi
4:00 PM81 °FSunny.25 mph58%29.83 "Hg10 mi
3:00 PM81 °FSunny.21 mph58%29.83 "Hg10 mi
2:00 PM82 °FSunny.22 mph51%29.86 "Hg10 mi
1:00 PM82 °FSunny.17 mph55%29.89 "Hg10 mi
12:00 PM79 °FPassing clouds.9 mph65%29.92 "HgN/A
11:00 AM79 °FPassing clouds.6 mph65%29.95 "HgN/A
10:00 AM75 °FPassing clouds.8 mph74%29.95 "HgN/A
9:00 AM72 °FSunny.7 mph83%29.98 "Hg10 mi
8:00 AM68 °FSunny.13 mph94%29.95 "Hg10 mi
7:00 AM66 °FPassing clouds.14 mph94%29.92 "HgN/A
6:00 AM66 °FPassing clouds.14 mph94%29.92 "HgN/A
5:00 AM68 °FClear.9 mph88%29.92 "Hg10 mi
4:00 AM68 °FClear.13 mph88%29.89 "Hg10 mi
3:00 AM70 °FClear.14 mph78%29.89 "Hg10 mi
2:00 AM68 °FClear.12 mph88%29.89 "Hg10 mi
1:00 AM68 °FClear.14 mph88%29.92 "Hg10 mi
12:00 AM68 °FClear.12 mph88%29.92 "Hg10 mi
11:00 PM
Mon, May 2
70 °FClear.15 mph83%29.92 "Hg10 mi
10:00 PM70 °FClear.18 mph83%29.92 "Hg10 mi
9:00 PM70 °FClear.16 mph83%29.92 "Hg10 mi
Weather by CustomWeather, © 2016

See weather overviewHow to use our weather pages